Weather History for Moultrie, GA

Change the Weather History Date:

Saturday, February 2, 2013

  Actual Average (KMUL) Record (KMUL)
Temperature  
Mean Temperature 48 °F -  
Max Temperature 62 °F 64 °F 81 °F (1969)
Min Temperature 33 °F 43 °F 17 °F (1951)
Degree Days  
Heating Degree Days 18    
Moisture  
Dew Point 26 °F    
Average Humidity 49    
Maximum Humidity 81    
Minimum Humidity 22    
Precipitation  
Precipitation 0.00 in - - ()
Sea Level Pressure  
Sea Level Pressure 30.29 in    
Wind  
Wind Speed 1 mph (SSW)    
Max Wind Speed 7 mph    
Max Gust Speed -    
Visibility 10 miles    
Events      
Averages and records for this station are not official NWS values.
T = Trace of Precipitation, MM = Missing Value Source: NWS Daily Summary

Daily Weather History Graph

Daily Weather History Graph

Search for Another Location

Airport:

Trip Planner

Search our weather history database for the weather conditions in past years. The results will help you decide how hot, cold, wet, or windy it might be!

Date:

Astronomy

Feb. 02, 2013 Rise Set
Actual Time 7:26 AM EST 6:11 PM EST
Civil Twilight 7:01 AM EST 6:37 PM EST
Nautical Twilight 6:32 AM EST 7:06 PM EST
Astronomical Twilight 6:03 AM EST 7:34 PM EST
Moon No Moon Rise 11:06 AM EST (2/2)
Length of Visible Light 11h 36m
Length of Day
10h 45m
Waning Gibbous, 60% of the Moon is Illuminated
Feb 2
Waning Gibbous
Feb 3
Last Quarter
Feb 10
New
Feb 17
First Quarter
Feb 25
Full

Hourly Weather History & Observations

Time (EST) Temp. Windchill Dew Point Humidity Pressure Visibility Wind Dir Wind Speed Gust Speed Precip Events Conditions
12:15 AM 37.4 °F - 28.4 °F 70% 30.37 in 10.0 mi Calm Calm - N/A   Clear
12:35 AM 37.4 °F - 30.2 °F 75% 30.36 in 10.0 mi Calm Calm - N/A   Clear
12:55 AM 37.4 °F - 30.2 °F 75% 30.36 in 10.0 mi Calm Calm - N/A   Clear
1:15 AM 37.4 °F - 30.2 °F 75% 30.36 in 10.0 mi Calm Calm - N/A   Clear
1:35 AM 35.6 °F - 28.4 °F 75% 30.36 in 10.0 mi Calm Calm - N/A   Clear
1:55 AM 35.6 °F - 30.2 °F 81% 30.36 in 10.0 mi Calm Calm - N/A   Clear
2:15 AM 35.6 °F - 28.4 °F 75% 30.35 in 10.0 mi Calm Calm - N/A   Clear
2:35 AM 35.6 °F 32.8 °F 24.8 °F 65% 30.35 in 10.0 mi NE 3.5 mph - N/A   Clear
2:55 AM 37.4 °F 34.9 °F 23.0 °F 56% 30.35 in 10.0 mi NNE 3.5 mph - N/A   Clear
3:15 AM 37.4 °F - 23.0 °F 56% 30.36 in 10.0 mi Calm Calm - N/A   Clear
3:35 AM 35.6 °F 32.8 °F 23.0 °F 60% 30.36 in 10.0 mi NNE 3.5 mph - N/A   Clear
4:15 AM 35.6 °F 32.8 °F 21.2 °F 56% 30.36 in 10.0 mi NE 3.5 mph - N/A   Clear
4:35 AM 35.6 °F - 21.2 °F 56% 30.36 in 10.0 mi Calm Calm - N/A   Clear
4:55 AM 35.6 °F - 21.2 °F 56% 30.37 in 10.0 mi Calm Calm - N/A   Clear
5:15 AM 33.8 °F - 23.0 °F 65% 30.37 in 10.0 mi Calm Calm - N/A   Clear
5:35 AM 33.8 °F - 21.2 °F 60% 30.37 in 10.0 mi Calm Calm - N/A   Clear
5:55 AM 33.8 °F - 23.0 °F 65% 30.37 in 10.0 mi Calm Calm - N/A   Clear
6:15 AM 33.8 °F - 23.0 °F 65% 30.37 in 10.0 mi Calm Calm - N/A   Clear
6:35 AM 33.8 °F - 23.0 °F 65% 30.37 in 10.0 mi Calm Calm - N/A   Clear
6:55 AM 33.8 °F - 23.0 °F 65% 30.37 in 10.0 mi Calm Calm - N/A   Clear
7:15 AM 33.8 °F - 21.2 °F 60% 30.37 in 10.0 mi Calm Calm - N/A   Clear
7:35 AM 33.8 °F - 21.2 °F 60% 30.37 in 10.0 mi Calm Calm - N/A   Clear
7:55 AM 33.8 °F - 23.0 °F 65% 30.38 in 10.0 mi Calm Calm - N/A   Clear
8:15 AM 35.6 °F - 23.0 °F 60% 30.38 in 10.0 mi Calm Calm - N/A   Clear
8:35 AM 35.6 °F - 19.4 °F 52% 30.39 in 10.0 mi Calm Calm - N/A   Clear
8:55 AM 37.4 °F - 19.4 °F 48% 30.39 in 10.0 mi Calm Calm - N/A   Clear
9:35 AM 41.0 °F 37.1 °F 17.6 °F 39% 30.39 in 10.0 mi East 5.8 mph - N/A   Clear
9:55 AM 42.8 °F 40.1 °F 15.8 °F 34% 30.38 in 10.0 mi East 4.6 mph - N/A   Clear
10:15 AM 44.6 °F 40.7 °F 17.6 °F 34% 30.38 in 10.0 mi SE 6.9 mph - N/A   Clear
10:35 AM 46.4 °F 43.5 °F 17.6 °F 32% 30.38 in 10.0 mi East 5.8 mph - N/A   Clear
10:55 AM 46.4 °F - 17.6 °F 32% 30.37 in 10.0 mi Calm Calm - N/A   Clear
11:15 AM 50.0 °F - 19.4 °F 30% 30.36 in 10.0 mi SSE 3.5 mph - N/A   Clear
11:35 AM 50.0 °F - 19.4 °F 30% 30.35 in 10.0 mi South 3.5 mph - N/A   Clear
11:55 AM 51.8 °F - 19.4 °F 28% 30.34 in 10.0 mi SE 4.6 mph - N/A   Clear
12:15 PM 53.6 °F - 19.4 °F 26% 30.32 in 10.0 mi SSW 4.6 mph - N/A   Clear
12:35 PM 53.6 °F - 19.4 °F 26% 30.31 in 10.0 mi WSW 4.6 mph - N/A   Clear
12:55 PM 55.4 °F - 19.4 °F 25% 30.29 in 10.0 mi WNW 3.5 mph - N/A   Clear
1:15 PM 57.2 °F - 21.2 °F 25% 30.28 in 10.0 mi WSW 5.8 mph - N/A   Clear
1:35 PM 59.0 °F - 19.4 °F 22% 30.26 in 10.0 mi WSW 3.5 mph - N/A   Clear
1:55 PM 59.0 °F - 21.2 °F 23% 30.26 in 10.0 mi West 3.5 mph - N/A   Clear
2:15 PM 59.0 °F - 21.2 °F 23% 30.24 in 10.0 mi Calm Calm - N/A   Clear
2:35 PM 60.8 °F - 21.2 °F 22% 30.23 in 10.0 mi SSW 3.5 mph - N/A   Clear
2:55 PM 60.8 °F - 21.2 °F 22% 30.23 in 7.0 mi Calm Calm - N/A   Clear
3:15 PM 60.8 °F - 23.0 °F 23% 30.23 in 7.0 mi SW 3.5 mph - N/A   Clear
3:35 PM 62.6 °F - 23.0 °F 22% 30.22 in 10.0 mi WSW 5.8 mph - N/A   Clear
3:55 PM 62.6 °F - 24.8 °F 24% 30.21 in 10.0 mi SSW 4.6 mph - N/A   Clear
4:15 PM 62.6 °F - 23.0 °F 22% 30.21 in 10.0 mi West 4.6 mph - N/A   Clear
4:35 PM 62.6 °F - 23.0 °F 22% 30.21 in 10.0 mi SW 6.9 mph - N/A   Clear
4:55 PM 62.6 °F - 24.8 °F 24% 30.21 in 10.0 mi SSW 4.6 mph - N/A   Clear
5:15 PM 62.6 °F - 26.6 °F 26% 30.20 in 10.0 mi SW 3.5 mph - N/A   Clear
5:35 PM 60.8 °F - 28.4 °F 29% 30.19 in 10.0 mi Calm Calm - N/A   Clear
5:55 PM 60.8 °F - 28.4 °F 29% 30.19 in 7.0 mi SW 3.5 mph - N/A   Clear
6:15 PM 55.4 °F - 32.0 °F 41% 30.19 in 10.0 mi Calm Calm - N/A   Clear
6:35 PM 53.6 °F - 33.8 °F 47% 30.19 in 10.0 mi Calm Calm - N/A   Clear
6:55 PM 53.6 °F - 33.8 °F 47% 30.19 in 10.0 mi Calm Calm - N/A   Clear
7:15 PM 51.8 °F - 33.8 °F 50% 30.20 in 10.0 mi Calm Calm - N/A   Clear
7:35 PM 50.0 °F - 33.8 °F 54% 30.19 in 10.0 mi Calm Calm - N/A   Clear
7:55 PM 46.4 °F - 33.8 °F 62% 30.19 in 7.0 mi Calm Calm - N/A   Clear
8:15 PM 48.2 °F - 33.8 °F 58% 30.20 in 7.0 mi Calm Calm - N/A   Clear
8:35 PM 46.4 °F - 35.6 °F 66% 30.19 in 7.0 mi Calm Calm - N/A   Clear
8:55 PM 44.6 °F - 37.4 °F 76% 30.19 in 7.0 mi Calm Calm - N/A   Clear
9:15 PM 46.4 °F - 35.6 °F 66% 30.19 in 7.0 mi Calm Calm - N/A   Clear
9:35 PM 44.6 °F - 35.6 °F 71% 30.19 in 7.0 mi Calm Calm - N/A   Clear
9:55 PM 44.6 °F - 35.6 °F 71% 30.19 in 7.0 mi Calm Calm - N/A   Clear
10:15 PM 44.6 °F - 35.6 °F 71% 30.19 in 7.0 mi Calm Calm - N/A   Clear
10:35 PM 46.4 °F 44.3 °F 33.8 °F 62% 30.18 in 7.0 mi SSW 4.6 mph - N/A   Clear
10:55 PM 50.0 °F - 33.8 °F 54% 30.18 in 10.0 mi Calm Calm - N/A   Clear
11:15 PM 48.2 °F - 33.8 °F 58% 30.18 in 10.0 mi SW 3.5 mph - N/A   Scattered Clouds
11:35 PM 48.2 °F - 33.8 °F 58% 30.18 in 10.0 mi SW 3.5 mph - N/A   Mostly Cloudy
11:55 PM 46.4 °F 45.2 °F 33.8 °F 62% 30.18 in 10.0 mi SW 3.5 mph - N/A   Scattered Clouds